When you browse on this site, cookies collect data to enhance your experience and personalize the content and advertising you see.
Visit our Privacy Policy to learn more. By continuing to use the site, you agree to this use of cookies and data.
  • In United Kingdom
  • List of Countries
  • For 7 days
  • Water Temperature
  • Weather Map
  • Weather Widgets
  • user-avatar
    Login

    Hourly Weather Aberkenfig

    Today, 23 August, Friday

    Time Temperature Precipitation Wind Pressure Humidity
    00:00 +16°C° 0 mm 2 mps 758 mmHg 98%
    01:00 +16°C° 0 mm 2 mps 758 mmHg 98%
    02:00 +16°C° 0 mm 2 mps 758 mmHg 98%
    03:00 +16°C° 0 mm 2 mps 757 mmHg 97%
    04:00 +16°C° 0 mm 2 mps 757 mmHg 97%
    05:00 +16°C° 0 mm 1 mps 757 mmHg 97%
    06:00 +16°C° 0 mm 1 mps 757 mmHg 97%
    07:00 +18°C° 0 mm 1 mps 757 mmHg 93%
    08:00 +19°C° 0 mm 1 mps 757 mmHg 89%
    09:00 +18°C° 0 mm 2 mps 757 mmHg 85%
    10:00 +20°C° 0 mm 2 mps 757 mmHg 80%
    11:00 +21°C° 0 mm 2 mps 757 mmHg 75%
    12:00 +23°C° 0 mm 2 mps 757 mmHg 70%
    13:00 +22°C° 0 mm 3 mps 757 mmHg 69%
    14:00 +22°C° 0 mm 3 mps 756 mmHg 67%
    15:00 +23°C° 0 mm 4 mps 756 mmHg 65%
    16:00 +22°C° 0 mm 3 mps 756 mmHg 68%
    17:00 +21°C° 0 mm 3 mps 755 mmHg 71%
    18:00 +20°C° 0 mm 3 mps 755 mmHg 74%
    19:00 +18°C° 0 mm 3 mps 755 mmHg 77%
    20:00 +16°C° 0 mm 2 mps 755 mmHg 80%
    21:00 +15°C° 0 mm 2 mps 755 mmHg 84%
    22:00 +14°C° 0 mm 2 mps 755 mmHg 85%
    23:00 +14°C° 0 mm 2 mps 754 mmHg 85%

    Tomorrow, 24 August, Saturday

    Time Temperature Precipitation Wind Pressure Humidity
    00:00 +13°C° 0 mm 3 mps 754 mmHg 86%
    01:00 +12°C° 0 mm 3 mps 754 mmHg 85%
    02:00 +12°C° 0 mm 3 mps 754 mmHg 85%
    03:00 +12°C° 0 mm 3 mps 753 mmHg 84%
    04:00 +12°C° 0 mm 3 mps 753 mmHg 83%
    05:00 +12°C° 0 mm 4 mps 753 mmHg 82%
    06:00 +13°C° 0 mm 4 mps 752 mmHg 80%
    07:00 +15°C° 0 mm 4 mps 752 mmHg 76%
    08:00 +18°C° 0 mm 4 mps 753 mmHg 71%
    09:00 +20°C° 0 mm 5 mps 753 mmHg 67%
    10:00 +21°C° 0 mm 5 mps 752 mmHg 66%
    11:00 +22°C° 0 mm 5 mps 752 mmHg 64%
    12:00 +23°C° 0 mm 5 mps 752 mmHg 63%
    13:00 +25°C° 0 mm 5 mps 752 mmHg 62%
    14:00 +26°C° 0 mm 5 mps 751 mmHg 61%
    15:00 +26°C° 0 mm 6 mps 751 mmHg 61%
    16:00 +25°C° 0 mm 5 mps 751 mmHg 65%
    17:00 +23°C° 0 mm 4 mps 751 mmHg 70%
    18:00 +22°C° 0 mm 3 mps 750 mmHg 75%
    19:00 +20°C° 0 mm 3 mps 751 mmHg 78%
    20:00 +19°C° 0 mm 3 mps 751 mmHg 81%
    21:00 +18°C° 0 mm 3 mps 751 mmHg 84%
    22:00 +17°C° 0 mm 2 mps 751 mmHg 85%
    23:00 +17°C° 0 mm 2 mps 751 mmHg 86%

    Day after tomorrow, 25 August, Sunday

    Time Temperature Precipitation Wind Pressure Humidity
    00:00 +16°C° 0 mm 1 mps 751 mmHg 87%
    01:00 +16°C° 0 mm 1 mps 751 mmHg 87%
    02:00 +16°C° 0 mm 1 mps 750 mmHg 88%
    03:00 +16°C° 0 mm 1 mps 750 mmHg 88%
    04:00 +16°C° 0 mm 1 mps 750 mmHg 88%
    05:00 +16°C° 0 mm 1 mps 750 mmHg 88%
    06:00 +16°C° 0 mm 1 mps 750 mmHg 88%
    07:00 +18°C° 0 mm 1 mps 751 mmHg 84%
    08:00 +20°C° 0 mm 1 mps 751 mmHg 80%
    09:00 +21°C° 0 mm 1 mps 751 mmHg 76%
    10:00 +22°C° 0 mm 1 mps 751 mmHg 76%
    11:00 +21°C° 0 mm 2 mps 751 mmHg 75%
    12:00 +23°C° 0 mm 2 mps 752 mmHg 74%
    13:00 +23°C° 0 mm 2 mps 752 mmHg 73%
    14:00 +24°C° 0 mm 3 mps 752 mmHg 72%
    15:00 +24°C° 0 mm 3 mps 752 mmHg 70%
    16:00 +22°C° 0 mm 3 mps 752 mmHg 76%
    17:00 +21°C° 0 mm 4 mps 752 mmHg 81%
    18:00 +20°C° 0 mm 4 mps 752 mmHg 87%
    19:00 +19°C° 0 mm 3 mps 752 mmHg 89%
    20:00 +17°C° 0 mm 3 mps 752 mmHg 92%
    21:00 +16°C° 0 mm 2 mps 752 mmHg 95%
    22:00 +16°C° 0 mm 2 mps 752 mmHg 95%
    23:00 +16°C° 0 mm 2 mps 752 mmHg 95%

    26 August, Monday

    Time Temperature Precipitation Wind Pressure Humidity
    00:00 +16°C° 0 mm 2 mps 752 mmHg 95%
    01:00 +15°C° 0 mm 2 mps 752 mmHg 95%
    02:00 +15°C° 0 mm 2 mps 752 mmHg 95%
    03:00 +15°C° 0 mm 2 mps 752 mmHg 96%
    04:00 +15°C° 0 mm 2 mps 752 mmHg 96%
    05:00 +15°C° 0 mm 2 mps 752 mmHg 96%
    06:00 +15°C° 0 mm 1 mps 752 mmHg 96%
    07:00 +17°C° 0 mm 2 mps 752 mmHg 90%
    08:00 +18°C° 0 mm 2 mps 752 mmHg 85%
    09:00 +20°C° 0 mm 2 mps 752 mmHg 79%
    10:00 +21°C° 0 mm 2 mps 752 mmHg 75%
    11:00 +23°C° 0 mm 2 mps 752 mmHg 71%
    12:00 +24°C° 0 mm 2 mps 752 mmHg 67%
    13:00 +24°C° 0 mm 3 mps 752 mmHg 66%
    14:00 +24°C° 0 mm 3 mps 752 mmHg 66%
    15:00 +24°C° 0 mm 3 mps 752 mmHg 65%
    16:00 +22°C° 0 mm 3 mps 751 mmHg 69%
    17:00 +21°C° 0 mm 2 mps 751 mmHg 73%
    18:00 +21°C° 0 mm 2 mps 751 mmHg 77%
    19:00 +19°C° 0 mm 2 mps 751 mmHg 79%
    20:00 +18°C° 0 mm 2 mps 751 mmHg 82%
    21:00 +16°C° 0 mm 3 mps 751 mmHg 85%
    22:00 +17°C° 0 mm 2 mps 751 mmHg 81%
    23:00 +17°C° 0 mm 2 mps 751 mmHg 78%

    27 August, Tuesday

    Time Temperature Precipitation Wind Pressure Humidity
    00:00 +17°C° 0 mm 2 mps 751 mmHg 75%
    01:00 +16°C° 0 mm 2 mps 750 mmHg 76%
    02:00 +16°C° 0 mm 2 mps 750 mmHg 77%
    03:00 +15°C° 0 mm 2 mps 750 mmHg 78%
    04:00 +15°C° 0 mm 2 mps 750 mmHg 79%
    05:00 +15°C° 0 mm 2 mps 750 mmHg 80%
    06:00 +15°C° 0 mm 2 mps 750 mmHg 81%
    07:00 +17°C° 0 mm 3 mps 750 mmHg 78%
    08:00 +18°C° 0 mm 3 mps 750 mmHg 74%
    09:00 +20°C° 0 mm 4 mps 750 mmHg 71%
    10:00 +21°C° 0 mm 4 mps 750 mmHg 71%
    11:00 +21°C° 0 mm 4 mps 750 mmHg 70%
    12:00 +22°C° 0 mm 5 mps 750 mmHg 70%
    13:00 +22°C° 0 mm 6 mps 750 mmHg 71%
    14:00 +21°C° 0 mm 6 mps 749 mmHg 73%
    15:00 +21°C° 0 mm 7 mps 749 mmHg 74%
    16:00 +19°C° 0 mm 6 mps 749 mmHg 78%
    17:00 +17°C° 0 mm 6 mps 749 mmHg 81%
    18:00 +16°C° 0 mm 5 mps 749 mmHg 85%
    19:00 +16°C° 0 mm 5 mps 750 mmHg 88%
    20:00 +15°C° 0 mm 5 mps 750 mmHg 92%
    21:00 +14°C° 0 mm 5 mps 750 mmHg 95%
    22:00 +14°C° 0 mm 5 mps 750 mmHg 95%
    23:00 +14°C° 0 mm 5 mps 750 mmHg 94%

    28 August, Wednesday

    Time Temperature Precipitation Wind Pressure Humidity
    00:00 +14°C° 0 mm 5 mps 750 mmHg 94%
    01:00 +14°C° 0 mm 5 mps 750 mmHg 94%
    02:00 +14°C° 0 mm 5 mps 749 mmHg 95%
    03:00 +14°C° 0 mm 5 mps 749 mmHg 95%
    04:00 +15°C° 0.2 mm 5 mps 749 mmHg 96%
    05:00 +15°C° 0.2 mm 5 mps 750 mmHg 96%
    06:00 +15°C° 0.2 mm 5 mps 750 mmHg 96%
    07:00 +16°C° 0.2 mm 5 mps 750 mmHg 94%
    08:00 +16°C° 0.2 mm 5 mps 750 mmHg 92%
    09:00 +17°C° 0.2 mm 5 mps 750 mmHg 90%
    10:00 +17°C° 0.1 mm 6 mps 751 mmHg 84%
    11:00 +17°C° 0.1 mm 6 mps 751 mmHg 79%
    12:00 +17°C° 0.1 mm 7 mps 751 mmHg 74%
    13:00 +17°C° 0 mm 7 mps 751 mmHg 71%
    14:00 +16°C° 0 mm 7 mps 752 mmHg 68%
    15:00 +16°C° 0 mm 7 mps 752 mmHg 66%
    16:00 +15°C° 0 mm 6 mps 752 mmHg 69%
    17:00 +15°C° 0 mm 6 mps 752 mmHg 73%
    18:00 +14°C° 0 mm 5 mps 753 mmHg 76%
    19:00 +13°C° 0 mm 5 mps 753 mmHg 81%
    20:00 +12°C° 0 mm 4 mps 753 mmHg 85%
    21:00 +10°C° 0 mm 3 mps 754 mmHg 89%
    22:00 +10°C° 0 mm 3 mps 754 mmHg 91%
    23:00 +11°C° 0 mm 3 mps 754 mmHg 92%
    Show more